Weather reports worldwide

Advertisment
Hohenfels, Germany (10775): temperature & dewpoint: 12.10.2018 03:00:00 - 18.10.2018 03:00:00 (CEST)Hohenfels, Germany (10775): wind speed: 12.10.2018 03:00:00 - 18.10.2018 03:00:00 (CEST)Hohenfels, Germany (10775): wind direction: 12.10.2018 03:00:00 - 18.10.2018 03:00:00 (CEST)Hohenfels, Germany (10775): reduced air pressure: 12.10.2018 03:00:00 - 18.10.2018 03:00:00 (CEST)Hohenfels, Germany (10775): visibility: 12.10.2018 03:00:00 - 18.10.2018 03:00:00 (CEST)Hohenfels, Germany (10775): precipitation: 12.10.2018 03:00:00 - 18.10.2018 03:00:00 (CEST)
Date & Time tt [°C] td [°C] ff [km/h] ff [kn] dd ppp [hPa] vv [km] rr [mm]
18.10.2018 03:00:00 5,6 5,5 0 0 N 1019,6 10 -
18.10.2018 02:00:00 6,1 6,0 0 0 N 1020,2 10 -
18.10.2018 01:00:00 6,7 6,6 0 0 N 1020,2 10 -
18.10.2018 00:00:00 6,6 6,5 0 0 N 1020,3 10 -
17.10.2018 23:00:00 7,6 7,5 0 0 N 1020,3 10 -
17.10.2018 22:00:00 8,3 8,2 0 0 N 1020,7 10 -
17.10.2018 21:00:00 9,5 9,3 0 0 N 1020,6 10 -
17.10.2018 20:00:00 10,7 9,9 5 3 W 1020,3 10 -
17.10.2018 19:00:00 12,9 10,8 5 3 W 1019,7 10 -
17.10.2018 18:00:00 15,9 11,5 5 3 W 1019,2 10 -
17.10.2018 17:00:00 19,2 11,7 5 3 SE 1018,8 10 -
17.10.2018 16:00:00 19,6 11,6 5 3 E 1018,9 10 -
17.10.2018 15:00:00 19,1 11,6 5 3 NNE 1018,9 10 -
17.10.2018 14:00:00 18,5 12,0 0 0 N 1019,1 10 -
17.10.2018 13:00:00 17,2 11,9 8 4 E 1020,0 10 -
17.10.2018 12:00:00 15,6 11,8 8 4 ESE 1020,6 10 -
17.10.2018 11:00:00 13,2 11,3 5 3 E 1021,0 10 -
17.10.2018 10:00:00 9,0 8,8 0 0 N 1021,2 10 -
17.10.2018 09:00:00 5,4 5,3 0 0 N 1021,1 10 -
17.10.2018 08:00:00 4,1 4,0 0 0 N 1021,3 10 -
17.10.2018 07:00:00 4,7 4,6 0 0 N 1020,7 10 -
17.10.2018 06:00:00 4,8 4,7 0 0 N 1020,3 10 -
17.10.2018 05:00:00 5,3 5,2 0 0 N 1020,2 10 -
17.10.2018 04:00:00 6,2 6,1 0 0 N 1020,0 10 -
17.10.2018 03:00:00 7,3 7,2 0 0 N 1019,8 10 -
17.10.2018 02:00:00 8,3 8,2 5 3 N 1019,8 10 -
17.10.2018 01:00:00 9,3 9,1 0 0 N 1020,1 10 -
17.10.2018 00:00:00 9,6 9,4 0 0 N 1020,3 10 -
16.10.2018 23:00:00 9,7 9,5 0 0 N 1020,5 10 -
16.10.2018 22:00:00 10,7 10,1 0 0 N 1020,9 10 -
16.10.2018 21:00:00 12,3 10,7 0 0 N 1020,7 10 -
16.10.2018 20:00:00 12,7 10,8 5 3 W 1020,9 10 -
16.10.2018 19:00:00 13,8 10,8 5 3 W 1020,4 10 -
16.10.2018 18:00:00 17,6 11,6 5 3 SE 1019,7 10 -
16.10.2018 17:00:00 19,3 11,3 9 5 E 1019,5 10 -
16.10.2018 16:00:00 20,1 11,3 8 4 E 1019,1 10 -
16.10.2018 15:00:00 20,6 11,5 5 3 SE 1018,9 10 -
16.10.2018 14:00:00 19,5 11,0 8 4 ESE 1019,3 10 -
16.10.2018 13:00:00 18,1 10,7 0 0 N 1019,8 10 -
16.10.2018 12:00:00 16,1 10,4 8 4 ESE 1020,3 10 -
16.10.2018 11:00:00 13,1 9,3 5 3 E 1020,2 10 -
16.10.2018 10:00:00 9,7 8,3 0 0 N 1020,4 10 -
16.10.2018 09:00:00 5,8 5,7 0 0 N 1020,6 10 -
16.10.2018 08:00:00 2,8 2,7 0 0 N 1020,1 10 -
16.10.2018 07:00:00 3,4 3,3 0 0 N 1019,4 10 -
16.10.2018 06:00:00 3,2 3,1 0 0 N 1019,0 10 -
16.10.2018 05:00:00 4,0 3,9 0 0 N 1018,4 10 -
16.10.2018 04:00:00 4,4 4,3 0 0 N 1017,9 10 -
16.10.2018 03:00:00 4,8 4,7 0 0 N 1017,9 10 -
16.10.2018 02:00:00 5,3 5,2 0 0 N 1017,6 10 -
16.10.2018 01:00:00 6,2 6,1 0 0 N 1017,8 10 -
16.10.2018 00:00:00 6,8 6,7 0 0 N 1017,2 10 -
15.10.2018 23:00:00 7,7 7,3 0 0 N 1017,2 10 -
15.10.2018 22:00:00 8,5 7,4 0 0 N 1017,1 10 -
15.10.2018 21:00:00 9,9 7,7 0 0 N 1017,3 10 -
15.10.2018 20:00:00 11,6 8,3 0 0 N 1017,7 10 -
15.10.2018 19:00:00 14,3 9,1 0 0 N 1016,6 10 -
15.10.2018 18:00:00 18,9 9,7 0 0 N 1015,7 10 -
15.10.2018 17:00:00 20,7 9,6 9 5 ESE 1015,3 10 -
15.10.2018 16:00:00 21,4 9,0 8 4 SSE 1015,1 10 -
15.10.2018 15:00:00 21,3 9,8 16 9 ESE 1015,1 10 -
15.10.2018 14:00:00 20,3 10,4 9 5 E 1015,1 10 -
15.10.2018 13:00:00 18,9 9,4 13 7 SE 1015,4 10 -
15.10.2018 12:00:00 18,9 9,4 13 7 E 1016,0 10 -
15.10.2018 11:00:00 17,3 8,4 16 9 ESE 1016,9 10 -
15.10.2018 10:00:00 15,3 8,3 9 5 SE 1016,5 10 -
15.10.2018 09:00:00 12,7 7,6 8 4 SE 1016,7 10 -
15.10.2018 08:00:00 6,7 5,8 0 0 N 1016,8 10 -
15.10.2018 07:00:00 7,1 6,0 0 0 N 1016,2 10 -
15.10.2018 06:00:00 8,0 6,3 0 0 N 1015,3 10 -
15.10.2018 05:00:00 10,4 6,5 0 0 N 1014,9 10 -
15.10.2018 04:00:00 12,0 7,1 0 0 N 1014,4 10 -
15.10.2018 03:00:00 13,7 7,5 5 3 SE 1014,2 10 -
15.10.2018 02:00:00 14,3 7,8 5 3 SSE 1014,4 10 -
15.10.2018 01:00:00 14,4 7,9 8 4 ESE 1014,1 10 -
15.10.2018 00:00:00 11,8 7,9 0 0 N 1014,1 10 -
14.10.2018 23:00:00 9,0 8,1 0 0 N 1014,5 10 -
14.10.2018 22:00:00 10,4 8,7 0 0 N 1014,9 10 -
14.10.2018 21:00:00 10,8 8,4 0 0 N 1015,3 10 -
14.10.2018 20:00:00 12,3 8,9 5 3 W 1015,5 10 -
14.10.2018 19:00:00 15,2 9,8 8 4 W 1015,3 10 -
14.10.2018 18:00:00 20,7 10,2 8 4 SE 1014,7 10 -
14.10.2018 17:00:00 22,3 11,1 11 6 ESE 1014,5 10 -
14.10.2018 16:00:00 22,2 11,0 13 7 ESE 1014,8 10 -
14.10.2018 15:00:00 21,5 11,2 9 5 ESE 1014,6 10 -
14.10.2018 14:00:00 20,9 11,5 11 6 ENE 1015,5 10 -
14.10.2018 13:00:00 19,4 11,2 15 8 E 1016,2 10 -
14.10.2018 12:00:00 17,8 10,2 8 4 ESE 1016,5 10 -
14.10.2018 11:00:00 16,0 9,9 11 6 ESE 1017,1 10 -
14.10.2018 10:00:00 12,9 9,7 0 0 N 1017,9 10 -
14.10.2018 09:00:00 7,5 7,4 0 0 N 1018,3 10 -
14.10.2018 08:00:00 3,6 3,5 0 0 N 1018,3 10 -
14.10.2018 07:00:00 3,7 3,6 0 0 N 1018,1 10 -
14.10.2018 06:00:00 3,5 3,4 0 0 N 1018,1 10 -
14.10.2018 05:00:00 4,3 4,2 0 0 N 1018,3 10 -
14.10.2018 04:00:00 4,3 4,2 0 0 N 1018,3 10 -
14.10.2018 03:00:00 5,3 5,2 0 0 N 1018,4 10 -
14.10.2018 02:00:00 5,8 5,7 0 0 N 1018,7 10 -
14.10.2018 01:00:00 6,4 6,3 0 0 N 1019,3 10 -
14.10.2018 00:00:00 7,6 7,5 0 0 N 1019,3 10 -
13.10.2018 23:00:00 8,0 7,9 0 0 N 1019,5 10 -
13.10.2018 22:00:00 9,9 9,4 0 0 N 1020,3 10 -
13.10.2018 21:00:00 10,7 9,8 0 0 N 1021,1 10 -
13.10.2018 20:00:00 13,2 10,4 0 0 N 1021,4 10 -
13.10.2018 19:00:00 16,0 11,6 0 0 N 1021,0 10 -
13.10.2018 18:00:00 20,7 13,1 9 5 ENE 1021,0 9 -
13.10.2018 17:00:00 22,3 13,1 9 5 E 1020,8 10 -
13.10.2018 16:00:00 22,2 13,5 8 4 E 1021,5 10 -
13.10.2018 15:00:00 22,1 13,7 8 4 ENE 1022,2 10 -
13.10.2018 14:00:00 21,2 13,6 9 5 E 1022,8 10 -
13.10.2018 13:00:00 19,8 13,7 5 3 E 1023,9 10 -
13.10.2018 12:00:00 18,0 13,7 5 3 ESE 1025,1 10 -
13.10.2018 11:00:00 15,8 12,9 0 0 N 1025,4 10 -
13.10.2018 10:00:00 12,6 11,7 0 0 N 1026,3 10 -
13.10.2018 09:00:00 7,4 7,3 0 0 N 1026,7 10 -
13.10.2018 08:00:00 4,9 4,8 0 0 N 1026,9 10 -
13.10.2018 07:00:00 5,1 5,0 0 0 N 1026,7 10 -
13.10.2018 06:00:00 5,5 5,4 0 0 N 1026,1 10 -
13.10.2018 05:00:00 6,1 6,0 0 0 N 1025,6 10 -
13.10.2018 04:00:00 6,2 6,1 0 0 N 1025,4 10 -
13.10.2018 03:00:00 6,5 6,4 0 0 N 1025,4 10 -
13.10.2018 02:00:00 7,3 7,2 0 0 N 1025,7 10 -
13.10.2018 01:00:00 8,1 8,0 0 0 N 1025,7 10 -
13.10.2018 00:00:00 8,9 8,7 0 0 N 1026,3 10 -
12.10.2018 23:00:00 9,9 9,7 0 0 N 1026,3 10 -
12.10.2018 22:00:00 10,6 10,4 0 0 N 1026,5 10 -
12.10.2018 21:00:00 12,6 11,5 0 0 N 1026,7 10 -
12.10.2018 20:00:00 13,0 11,7 5 3 W 1026,2 10 -
12.10.2018 19:00:00 15,7 12,4 8 4 W 1025,4 10 -
12.10.2018 18:00:00 19,8 13,5 0 0 N 1024,7 10 -
12.10.2018 17:00:00 22,9 13,4 5 3 SE 1024,3 10 -
12.10.2018 16:00:00 23,0 13,5 5 3 ESE 1024,5 10 -
12.10.2018 15:00:00 22,6 13,4 8 4 ESE 1024,2 3,0 -
12.10.2018 14:00:00 22,0 13,1 8 4 ESE 1024,5 10 -
12.10.2018 13:00:00 21,4 13,0 8 4 SE 1025,1 3,2 -
12.10.2018 12:00:00 19,5 12,3 0 0 N 1025,2 6 -
12.10.2018 11:00:00 17,1 11,4 8 4 E 1025,4 10 -
12.10.2018 10:00:00 14,5 10,9 5 3 E 1024,9 10 -
12.10.2018 09:00:00 10,2 10,0 0 0 N 1024,6 10 -
12.10.2018 08:00:00 8,2 8,1 0 0 N 1024,3 10 -
12.10.2018 07:00:00 9,8 9,6 0 0 N 1022,5 10 -
12.10.2018 06:00:00 10,2 10,0 0 0 N 1021,3 10 0,0
12.10.2018 05:00:00 10,2 9,9 0 0 N 1020,8 10 0,0
12.10.2018 04:00:00 9,7 9,4 0 0 N 1020,4 10 -
12.10.2018 03:00:00 9,5 9,0 0 0 N 1019,7 10 -

tt = temperature
td = dewpoint
ff = wind speed
dd = wind direction
ppp = reduced air pressure
vv = visibility
rr = precipitation

Next stations